Home   Weather   Plano   Past weeks

Flag for USA Past Weather in Plano, Texas, USA — Yesterday and Last 2 Weeks

Now
38 °F

Overcast.


Feels Like: 30 °F
Forecast: 36 / 49 °F
Wind: 12 mph from Southeast

Location: McKinney Municipal Airport

Current Time: Dec 10, 2016 at 8:59:49 am

Latest Report: Dec 10, 2016 at 7:53 am


Visibility: 10 mi

Pressure: 30.50 "Hg

Humidity: 63%

Dew Point: 26 °F

Location of PlanoLocation

Past Weather in Plano — Graph

°F

Plano Temperature Yesterday

Maximum temperature yesterday: 36 °F (at 2:53 pm)
Minimum temperature yesterday: 23 °F (at 4:53 am)
Average temperature yesterday: 31 °F

High & Low Weather Summary for the Past Weeks

 TemperatureHumidityPressure
High71 °F (Nov 29, 2:53 pm)100% (Nov 26, 8:55 am)30.74 "Hg (Nov 26, 8:55 am)
Low23 °F (Dec 9, 4:53 am)23% (Nov 28, 2:53 pm)29.43 "Hg (Nov 28, 2:53 pm)
Average48 °F73%30.11 "Hg
* Reported Nov 25 6:53 am — Dec 10 6:53 am, Plano, Weather by CustomWeather, © 2016

Note: Actual official high and low records may vary slightly from our data, if they occured in-between our weather recording intervals... More about our weather records

Advertising

Plano Weather History for the Previous 24 Hours

Scroll right to see more
 ConditionsComfort  
Time TempWeatherWind HumidityBarometerVisibility
6:53 am
Sat, Dec 10
38 °FOvercast.7 mph63%30.50 "Hg10 mi
5:53 am38 °FOvercast.10 mph60%30.50 "Hg10 mi
4:53 am38 °FOvercast.6 mph65%30.52 "Hg10 mi
3:53 am38 °FOvercast.8 mph63%30.52 "Hg10 mi
2:53 am38 °FOvercast.6 mph60%30.54 "Hg10 mi
1:53 am37 °FOvercast.5 mph62%30.54 "Hg10 mi
12:53 am35 °FOvercast.5 mph70%30.55 "Hg10 mi
11:53 pm
Fri, Dec 9
34 °FOvercast.3 mph70%30.57 "Hg10 mi
10:53 pm34 °FOvercast.5 mph64%30.57 "Hg10 mi
9:53 pm34 °FPassing clouds.3 mph61%30.57 "Hg10 mi
8:53 pm35 °FClear.5 mph59%30.57 "Hg10 mi
7:53 pm36 °FOvercast.5 mph54%30.57 "Hg10 mi
6:53 pm36 °FOvercast.3 mph54%30.58 "Hg10 mi
5:53 pm36 °FOvercast.3 mph54%30.56 "Hg10 mi
4:53 pm36 °FOvercast.5 mph52%30.57 "Hg10 mi
3:53 pm36 °FOvercast.3 mph50%30.58 "Hg10 mi
2:53 pm36 °FOvercast.5 mph50%30.59 "Hg10 mi
1:53 pm35 °FOvercast.6 mph48%30.61 "Hg10 mi
12:53 pm35 °FOvercast.No wind46%30.64 "Hg10 mi
11:53 am34 °FOvercast.3 mph48%30.68 "Hg10 mi
10:53 am32 °FOvercast.5 mph52%30.71 "Hg10 mi
9:53 am31 °FOvercast.6 mph57%30.73 "Hg10 mi
8:53 am29 °FOvercast.7 mph61%30.72 "Hg10 mi
Weather by CustomWeather, © 2016

See weather overviewHow to use our weather pages